Weather History for KPHP - November, 2013

Change the Weather History Date:

Tuesday, November 19, 2013

  Actual Average Record
Temperature  
Mean Temperature 44 °F 32 °F  
Max Temperature 65 °F 45 °F 74 °F (1989)
Min Temperature 23 °F 19 °F -7 °F (2011)
Degree Days  
Heating Degree Days 21 33  
Month to date heating degree days 518 537  
Since 1 July heating degree days 1101 1240  
Cooling Degree Days 0 0  
Month to date cooling degree days 0 0  
Year to date cooling degree days 945 818  
Moisture  
Dew Point 27 °F    
Average Humidity 51    
Maximum Humidity 82    
Minimum Humidity 20    
Precipitation  
Precipitation 0.00 in 0.02 in 0.30 in (2011)
Month to date precipitation 0.41 0.46  
Year to date precipitation 15.27 16.76  
Sea Level Pressure  
Sea Level Pressure 29.66 in    
Wind  
Wind Speed 7 mph (West)    
Max Wind Speed 26 mph    
Max Gust Speed 30 mph    
Visibility 10 miles    
Events      
T = Trace of Precipitation, MM = Missing Value Source: NWS Daily Summary

Daily Weather History Graph

Daily Weather History Graph

Search for Another Location

Airport or City:

Trip Planner

Search our weather history database for the weather conditions in past years. The results will help you decide how hot, cold, wet, or windy it might be!

Date:

Astronomy

Nov. 19, 2013 Rise Set
Actual Time 6:47 AM MST 4:16 PM MST
Civil Twilight 6:15 AM MST 4:47 PM MST
Nautical Twilight 5:40 AM MST 5:23 PM MST
Astronomical Twilight 5:05 AM MST 5:57 PM MST
Moon 6:08 PM MST (11/19) 8:28 AM MST (11/19)
Length of Visible Light 10h 32m
Length of Day
9h 29m
Waning Gibbous, 96% of the Moon is Illuminated
Nov 19
Waning Gibbous
Nov 25
Last Quarter
Dec 2
New
Dec 9
First Quarter
Dec 17
Full

Hourly Weather History & Observations

Time (MST) Temp. Windchill Dew Point Humidity Pressure Visibility Wind Dir Wind Speed Gust Speed Precip Events Conditions
12:55 AM 25.0 °F - 19.9 °F 81% 29.87 in 10.0 mi Calm Calm - N/A   Clear
1:55 AM 24.1 °F - 19.0 °F 81% 29.86 in 10.0 mi Calm Calm - N/A   Clear
2:55 AM 24.1 °F - 19.0 °F 81% 29.83 in 10.0 mi Calm Calm - N/A   Clear
3:55 AM 24.1 °F - 19.9 °F 84% 29.80 in 10.0 mi Calm Calm - N/A   Clear
4:55 AM 28.9 °F - 23.0 °F 78% 29.78 in 10.0 mi Calm Calm - N/A   Clear
5:55 AM 39.0 °F 31.0 °F 26.1 °F 60% 29.72 in 10.0 mi South 13.8 mph - N/A   Clear
6:55 AM 44.1 °F 38.1 °F 25.0 °F 47% 29.71 in 10.0 mi SSW 11.5 mph - N/A   Clear
7:55 AM 42.1 °F - 27.0 °F 55% 29.68 in 10.0 mi Calm Calm - N/A   Clear
8:55 AM 51.1 °F - 25.0 °F 36% 29.66 in 10.0 mi SW 4.6 mph - N/A   Clear
9:55 AM 60.1 °F - 25.0 °F 26% 29.62 in 10.0 mi WSW 13.8 mph - N/A   Clear
10:55 AM 64.9 °F - 24.1 °F 21% 29.58 in 10.0 mi WSW 18.4 mph - N/A   Clear
11:55 AM 64.9 °F - 23.0 °F 20% 29.55 in 10.0 mi SW 19.6 mph 27.6 mph N/A   Clear
12:55 PM 63.0 °F - 24.1 °F 23% 29.55 in 10.0 mi WSW 19.6 mph 28.8 mph N/A   Clear
1:55 PM 62.1 °F - 28.0 °F 28% 29.53 in 10.0 mi WSW 12.7 mph - N/A   Clear
2:55 PM 60.1 °F - 30.0 °F 32% 29.55 in 10.0 mi WNW 8.1 mph - N/A   Clear
3:55 PM 50.0 °F - 34.0 °F 54% 29.58 in 7.0 mi NNW 8.1 mph - N/A   Clear
4:55 PM 44.1 °F 41.5 °F 32.0 °F 63% 29.60 in 10.0 mi WNW 4.6 mph - N/A   Clear
5:55 PM 44.1 °F 40.8 °F 33.1 °F 65% 29.59 in 10.0 mi West 5.8 mph - N/A   Clear
6:55 PM 41.0 °F 38.0 °F 32.0 °F 70% 29.60 in 10.0 mi West 4.6 mph - N/A   Clear
7:55 PM 39.9 °F 35.1 °F 32.0 °F 73% 29.62 in 10.0 mi West 6.9 mph - N/A   Clear
8:55 PM 39.0 °F 35.7 °F 30.9 °F 73% 29.62 in 10.0 mi West 4.6 mph - N/A   Clear
9:55 PM 36.0 °F 31.1 °F 30.0 °F 79% 29.62 in 10.0 mi West 5.8 mph - N/A   Clear
10:55 PM 34.0 °F 31.0 °F 28.0 °F 79% 29.63 in 10.0 mi West 3.5 mph - N/A   Clear
11:55 PM 33.1 °F 27.7 °F 28.0 °F 82% 29.65 in 10.0 mi West 5.8 mph - N/A   Clear